GW1454 Weather Reports


time (UTC)temp
F
wind
direction
speed
knots
gust
knots
rain 1hr
in
rain 24hr
in
rain mn
in
humidity
%
barometer
mb
20260906103547 71 0 0.0 0.0 0.00 0.29 0.01 97 1013.4
20260906103055 71 0 0.0 2.6 0.00 0.29 0.01 98 1013.5
20260906102546 71 0 0.0 2.6 0.00 0.29 0.01 98 1013.3
20260906102044 71 159 0.0 1.7 0.00 0.29 0.01 98 1013.2
20260906101553 71 256 0.0 0.0 0.00 0.29 0.01 97 1013.3
20260906101045 70 0 0.0 0.0 0.00 0.29 0.01 97 1013.2
20260906100545 70 0 0.0 0.0 0.00 0.29 0.01 97 1013.0
20260906100105 70 0 0.0 0.0 0.00 0.29 0.01 98 1013.0
20260906095545 71 0 0.0 0.0 0.00 0.29 0.01 98 1012.9
20260906095046 70 0 0.0 0.0 0.00 0.29 0.01 98 1012.9
20260906094558 70 0 0.0 0.9 0.00 0.29 0.01 98 1012.9
20260906094045 70 0 0.0 0.9 0.00 0.29 0.01 98 1012.9
20260906093546 70 0 0.0 3.5 0.00 0.29 0.01 98 1012.8
20260906093113 70 0 0.0 3.5 0.00 0.29 0.01 98 1012.8
20260906092545 70 0 0.0 4.3 0.00 0.29 0.01 98 1012.8
20260906092046 70 0 0.9 4.3 0.00 0.29 0.01 98 1012.7
20260906091606 69 196 0.0 0.9 0.00 0.29 0.01 98 1012.6
20260906091045 69 0 0.0 0.0 0.00 0.29 0.01 98 1012.5
20260906090545 69 0 0.0 0.0 0.00 0.29 0.01 97 1012.5
20260906085543 68 0 0.0 0.0 0.00 0.29 0.01 97 1012.3
20260906085050 68 0 0.0 0.0 0.00 0.29 0.01 97 1012.3
20260906084605 68 0 0.0 0.0 0.00 0.29 0.01 97 1012.1
20260906084045 68 0 0.0 0.0 0.01 0.29 0.01 97 1012.3
20260906083546 68 0 0.0 0.0 0.01 0.29 0.01 97 1012.3
20260906083104 68 0 0.0 0.0 0.01 0.29 0.01 97 1012.3
20260906082544 68 0 0.0 0.0 0.01 0.29 0.01 97 1012.1
20260906082045 68 0 0.0 0.0 0.01 0.29 0.01 97 1012.2
20260906081604 68 0 0.0 0.0 0.01 0.29 0.01 97 1012.2
20260906081045 68 0 0.0 0.0 0.01 0.29 0.01 97 1012.0
20260906080547 68 0 0.0 0.0 0.01 0.29 0.01 96 1011.9
20260906080109 68 0 0.0 0.0 0.01 0.29 0.01 97 1011.9
20260906075545 68 0 0.0 0.0 0.01 0.29 0.01 97 1011.8
20260906075045 68 0 0.0 0.0 0.01 0.29 0.01 97 1011.8
20260906074606 68 0 0.0 0.0 0.01 0.29 0.01 97 1011.9
20260906074044 68 0 0.0 0.0 0.00 0.28 0.00 96 1011.8
20260906073547 68 0 0.0 0.0 0.00 0.28 0.00 96 1011.9
20260906073105 68 0 0.0 0.0 0.00 0.28 0.00 96 1011.9
20260906072545 68 0 0.0 0.0 0.00 0.28 0.00 96 1012.0
20260906072044 68 0 0.0 0.0 0.00 0.28 0.00 96 1011.9
20260906071606 68 0 0.0 0.0 0.00 0.28 0.00 96 1012.1
20260906071045 68 0 0.0 0.0 0.00 0.28 0.00 96 1012.1
20260906070547 69 0 0.0 0.0 0.00 0.28 0.00 96 1012.2
20260906070110 68 0 0.0 0.0 0.00 0.28 0.00 96 1012.2
20260906065545 68 0 0.0 0.0 0.00 0.28 0.00 96 1012.3
20260906065045 69 0 0.0 0.0 0.00 0.28 0.00 96 1012.3
20260906064606 69 0 0.0 0.0 0.00 0.28 0.00 96 1012.3
20260906064044 69 0 0.0 0.0 0.00 0.28 0.00 96 1012.3
20260906063546 69 0 0.0 0.0 0.00 0.28 0.00 96 1012.3
20260906063110 69 0 0.0 0.0 0.00 0.28 0.00 96 1012.3
20260906062544 69 0 0.0 0.0 0.00 0.28 0.00 96 1012.3
20260906062044 69 0 0.0 0.0 0.00 0.28 0.00 96 1012.3
20260906061606 69 0 0.0 0.0 0.00 0.28 0.00 96 1012.4
20260906061045 69 0 0.0 0.0 0.00 0.28 0.00 96 1012.3
20260906060547 69 0 0.0 0.0 0.00 0.28 0.00 96 1012.3
20260906060105 69 0 0.0 0.0 0.00 0.28 0.00 96 1012.4
20260906055545 69 0 0.0 0.0 0.00 0.28 0.00 96 1012.5
20260906055045 69 0 0.0 0.0 0.00 0.28 0.00 96 1012.6
20260906054606 69 0 0.0 0.0 0.00 0.28 0.00 96 1012.4
20260906054046 69 0 0.0 0.0 0.00 0.28 0.00 96 1012.5
20260906053545 69 0 0.0 0.0 0.00 0.28 0.00 95 1012.5
20260906053056 69 0 0.0 0.0 0.00 0.28 0.00 95 1012.4
20260906052546 70 0 0.0 0.0 0.00 0.28 0.00 95 1012.5
20260906052046 70 0 0.0 0.0 0.00 0.28 0.00 96 1012.5
20260906051553 70 0 0.0 0.0 0.00 0.28 0.00 95 1012.6
20260906051047 70 0 0.0 0.0 0.00 0.28 0.00 95 1012.7
20260906050548 70 0 0.0 0.0 0.00 0.28 0.00 95 1012.6
20260906050123 70 0 0.0 0.0 0.00 0.28 0.00 95 1012.6
20260906045545 70 0 0.0 0.0 0.00 0.28 0.00 95 1012.8
20260906045045 70 0 0.0 0.0 0.00 0.28 0.00 95 1012.6
20260906044555 70 0 0.0 0.0 0.00 0.28 0.00 95 1012.7
20260906044045 70 0 0.0 0.0 0.00 0.28 0.00 95 1012.8
20260906043544 70 0 0.0 0.0 0.00 0.28 0.00 95 1012.9
20260906043056 70 0 0.0 0.0 0.00 0.28 0.00 95 1012.9
20260906042545 70 0 0.0 0.0 0.00 0.28 0.00 95 1013.0
20260906042046 70 0 0.0 0.0 0.00 0.28 0.00 95 1013.2
20260906041604 71 0 0.0 0.0 0.00 0.28 0.00 95 1013.1
20260906041046 71 0 0.0 0.0 0.00 0.28 0.00 95 1013.1
20260906040545 71 0 0.0 0.0 0.00 0.28 0.00 95 1013.0
20260906040128 71 0 0.0 2.6 0.00 0.28 0.00 95 1013.0
20260906035546 71 0 0.0 2.6 0.00 0.28 0.28 95 1013.1
20260906035046 71 0 0.0 3.5 0.00 0.28 0.28 96 1013.2
20260906034555 71 0 0.0 3.5 0.00 0.28 0.28 96 1013.2
20260906034046 71 0 0.9 3.5 0.00 0.28 0.28 96 1013.1
20260906033545 70 0 0.0 0.0 0.00 0.28 0.28 96 1013.0
20260906033105 70 0 0.0 0.0 0.00 0.28 0.28 96 1013.0
20260906032549 70 0 0.0 0.0 0.00 0.28 0.28 96 1012.9
20260906032045 70 0 0.0 0.0 0.00 0.28 0.28 96 1012.9
20260906031602 70 0 0.0 0.0 0.00 0.28 0.28 96 1012.9
20260906031045 70 0 0.0 0.0 0.00 0.28 0.28 96 1012.8
20260906030545 70 0 0.0 0.0 0.00 0.28 0.28 96 1012.9
20260906030059 70 0 0.0 0.0 0.00 0.28 0.28 96 1012.8
20260906025546 70 0 0.0 0.0 0.00 0.28 0.28 96 1012.7
20260906025046 70 0 0.0 0.0 0.00 0.28 0.28 96 1012.8
20260906024618 70 0 0.0 0.0 0.00 0.28 0.28 95 1012.8
20260906024046 70 0 0.0 0.0 0.00 0.28 0.28 95 1012.7
20260906023546 70 0 0.0 0.0 0.00 0.28 0.28 95 1012.6
20260906023104 70 0 0.0 0.0 0.00 0.28 0.28 95 1012.5
20260906022545 70 0 0.0 0.0 0.00 0.28 0.28 95 1012.7
20260906022045 70 0 0.0 0.0 0.00 0.28 0.28 95 1012.5
20260906021603 70 0 0.0 0.0 0.00 0.28 0.28 95 1012.4
20260906021045 70 0 0.0 0.0 0.00 0.28 0.28 95 1012.6
20260906020548 70 0 0.0 0.0 0.00 0.28 0.28 95 1012.7
20260906020105 70 0 0.0 0.0 0.00 0.28 0.28 95 1012.7
20260906015545 71 0 0.0 0.0 0.00 0.28 0.28 95 1012.7
20260906015046 71 0 0.0 0.0 0.00 0.28 0.28 94 1012.5
20260906014611 71 0 0.0 0.0 0.00 0.28 0.28 95 1012.5
20260906014045 71 0 0.0 0.0 0.00 0.28 0.28 94 1012.5
20260906013545 71 0 0.0 0.0 0.00 0.28 0.28 94 1012.5
20260906013105 71 0 0.0 0.0 0.00 0.28 0.28 94 1012.5
20260906012547 71 0 0.0 0.0 0.00 0.28 0.28 94 1012.4
20260906012044 71 0 0.0 0.0 0.00 0.28 0.28 94 1012.2
20260906011602 71 0 0.0 0.0 0.00 0.28 0.28 93 1012.1
20260906011045 71 0 0.0 0.0 0.00 0.28 0.28 93 1012.3
20260906010545 71 0 0.0 0.0 0.00 0.28 0.28 93 1012.3
20260906010054 71 0 0.0 0.0 0.00 0.28 0.28 93 1012.3
20260906005546 71 0 0.0 0.0 0.00 0.28 0.28 93 1012.3
20260906005045 71 0 0.0 0.0 0.00 0.28 0.28 93 1012.3
20260906004601 71 0 0.0 0.0 0.00 0.28 0.28 92 1012.2
20260906004045 71 0 0.0 0.0 0.00 0.28 0.28 92 1012.2
20260906003545 71 0 0.0 0.0 0.00 0.28 0.28 92 1012.0
20260906003105 72 0 0.0 0.0 0.00 0.28 0.28 92 1012.1
20260906002546 72 0 0.0 0.0 0.00 0.28 0.28 91 1012.1
20260906002047 72 0 0.0 0.0 0.00 0.28 0.28 91 1012.1
20260906001553 72 0 0.0 0.0 0.00 0.28 0.28 91 1012.0
20260906001046 73 0 0.0 0.0 0.00 0.28 0.28 91 1012.0
20260906000545 73 0 0.0 0.0 0.00 0.28 0.28 90 1011.9
20260905235549 73 0 0.0 0.0 0.00 0.28 0.28 90 1011.9
20260905235045 73 0 0.0 0.0 0.00 0.28 0.28 90 1011.7
20260905234612 74 0 0.0 0.0 0.00 0.28 0.28 89 1011.7
20260905234048 74 0 0.0 0.0 0.00 0.28 0.28 89 1011.5
20260905233546 74 0 0.0 0.9 0.00 0.28 0.28 87 1011.3
20260905233054 74 0 0.0 0.9 0.00 0.28 0.28 88 1011.5
20260905232545 75 0 0.0 0.9 0.00 0.28 0.28 87 1011.4
20260905232046 75 0 0.0 1.7 0.00 0.28 0.28 87 1011.4
20260905231557 75 0 0.0 1.7 0.00 0.28 0.28 86 1011.3
20260905231045 76 0 0.0 0.9 0.00 0.28 0.28 86 1011.3
20260905230545 76 0 0.0 1.7 0.00 0.28 0.28 85 1011.2
20260905230130 77 0 0.0 1.7 0.00 0.28 0.28 84 1011.2
20260905225547 77 0 0.0 0.9 0.00 0.28 0.28 83 1011.3
20260905225045 77 0 0.0 1.7 0.00 0.28 0.28 82 1011.5
20260905224556 77 0 0.0 1.7 0.00 0.28 0.28 82 1011.5
20260905224046 78 0 0.0 1.7 0.00 0.28 0.28 81 1011.5
20260905223545 78 0 0.0 1.7 0.00 0.28 0.28 79 1011.5
20260905223109 78 0 0.0 1.7 0.00 0.28 0.28 79 1011.6
20260905222546 79 104 0.0 1.7 0.00 0.28 0.28 80 1011.6
20260905222045 78 0 0.0 1.7 0.00 0.28 0.28 80 1011.6
20260905221556 78 140 0.0 1.7 0.00 0.28 0.28 81 1011.8
20260905221048 78 0 0.0 1.7 0.00 0.28 0.28 81 1011.7
20260905220545 77 145 0.0 1.7 0.00 0.28 0.28 82 1012.0
20260905220052 76 0 0.0 1.7 0.00 0.28 0.28 83 1012.0
20260905215545 76 145 0.9 2.6 0.00 0.28 0.28 82 1011.9
20260905215047 77 142 0.9 2.6 0.00 0.28 0.28 83 1012.0
20260905214559 77 126 0.0 1.7 0.00 0.28 0.28 85 1012.0
20260905214045 76 0 0.0 1.7 0.00 0.28 0.28 86 1012.0
20260905213546 76 0 0.0 0.9 0.00 0.28 0.28 86 1012.0
20260905213103 76 0 0.0 0.9 0.00 0.28 0.28 86 1012.0
20260905212545 76 0 0.0 0.9 0.00 0.28 0.28 87 1012.2
20260905212045 76 0 0.0 1.7 0.00 0.28 0.28 86 1012.1
20260905211605 76 110 0.0 2.6 0.00 0.28 0.28 86 1012.3
20260905211045 76 0 0.0 4.3 0.00 0.28 0.28 85 1012.1
20260905210545 77 0 1.7 4.3 0.00 0.28 0.28 84 1012.4
20260905210058 77 66 0.9 4.3 0.00 0.28 0.28 86 1012.4
20260905205545 77 82 0.9 4.3 0.00 0.28 0.28 85 1012.5
20260905205046 76 69 0.9 4.3 0.00 0.28 0.28 89 1012.3
20260905204605 75 76 0.0 5.2 0.00 0.28 0.28 90 1012.3
20260905204045 75 133 1.7 5.2 0.00 0.28 0.28 92 1012.1
20260905203548 74 0 0.0 3.5 0.00 0.28 0.28 94 1012.0
20260905203102 74 0 0.0 0.0 0.00 0.28 0.28 94 1011.6
20260905202545 73 0 0.0 1.7 0.00 0.28 0.28 95 1011.4
20260905202046 73 0 0.0 1.7 0.00 0.28 0.28 95 1011.2
20260905201555 73 217 0.0 1.7 0.00 0.28 0.28 94 1011.3
20260905201046 73 0 0.0 0.9 0.00 0.28 0.28 95 1011.7
20260905200545 72 0 0.0 0.9 0.00 0.28 0.28 95 1011.9
20260905200109 72 113 0.0 0.9 0.00 0.28 0.28 95 1011.9
20260905195546 72 0 0.0 0.0 0.00 0.28 0.28 95 1012.2
20260905195049 72 0 0.0 0.0 0.00 0.28 0.28 95 1012.5
20260905194602 71 0 0.0 0.0 0.00 0.28 0.28 95 1012.3
20260905194045 71 0 0.0 0.0 0.00 0.28 0.28 95 1012.4
20260905193544 71 0 0.0 0.0 0.05 0.28 0.28 94 1012.6
20260905193114 71 0 0.0 0.9 0.28 0.28 0.28 94 1012.5
20260905192547 71 0 0.0 1.7 0.28 0.28 0.28 93 1012.3
20260905192048 71 159 0.9 1.7 0.28 0.28 0.28 93 1012.4
20260905191605 71 0 0.9 3.5 0.28 0.28 0.28 93 1012.1
20260905191045 71 23 0.0 3.5 0.28 0.28 0.28 93 1012.1
20260905190546 71 277 1.7 2.6 0.28 0.28 0.28 93 1012.0
20260905185546 71 0 0.0 2.6 0.28 0.28 0.28 90 1011.5
20260905185045 71 110 0.0 3.5 0.28 0.28 0.28 89 1011.8
20260905184604 72 0 0.9 10.4 0.28 0.28 0.28 86 1012.3
20260905184045 74 96 1.7 19.1 0.28 0.28 0.28 83 1012.2
20260905183546 78 284 5.2 20.9 0.21 0.21 0.21 77 1012.9
20260905183058 87 133 6.1 20.9 0.00 0.00 0.00 65 1012.8
20260905182545 89 0 0.0 0.9 0.00 0.00 0.00 66 1011.6
20260905182046 90 0 0.0 1.7 0.00 0.00 0.00 65 1011.5
20260905181552 91 0 0.0 2.6 0.00 0.00 0.00 62 1011.8
20260905181050 91 0 0.0 3.5 0.00 0.00 0.00 59 1011.7
20260905180546 92 167 0.0 5.2 0.00 0.00 0.00 59 1011.8
20260905175545 94 94 1.7 7.0 0.00 0.00 0.00 56 1012.3
20260905175045 94 51 0.9 7.0 0.00 0.00 0.00 56 1012.2
20260905174605 94 157 0.9 3.5 0.00 0.00 0.00 57 1012.1
20260905174046 93 0 0.9 6.1 0.00 0.00 0.00 57 1012.1
20260905173546 94 136 0.9 6.1 0.00 0.00 0.00 56 1012.2
20260905173105 94 102 0.9 7.0 0.00 0.00 0.00 56 1012.4
20260905172555 94 179 2.6 7.0 0.00 0.00 0.00 55 1012.6
20260905172046 93 142 0.0 7.0 0.00 0.00 0.00 58 1012.8
20260905171554 93 73 2.6 7.0 0.00 0.00 0.00 57 1012.8
20260905171045 92 0 2.6 7.0 0.00 0.00 0.00 58 1013.0
20260905170545 92 120 3.5 7.0 0.00 0.00 0.00 58 1013.1
20260905165546 92 67 1.7 7.0 0.00 0.00 0.00 59 1013.2
20260905165045 91 132 2.6 7.0 0.00 0.00 0.00 61 1013.3
20260905164554 92 209 2.6 7.0 0.00 0.00 0.00 60 1013.2
20260905164046 92 119 2.6 7.0 0.00 0.00 0.00 59 1013.3
20260905163545 92 104 1.7 5.2 0.00 0.00 0.00 61 1013.2
20260905163056 92 124 1.7 5.2 0.00 0.00 0.00 60 1013.4
20260905162549 92 243 1.7 6.1 0.00 0.00 0.00 60 1013.4
20260905162047 92 0 1.7 6.1 0.00 0.00 0.00 61 1013.5
20260905161552 91 109 0.9 4.3 0.00 0.00 0.00 62 1013.6
20260905161045 91 182 0.9 6.1 0.00 0.00 0.00 63 1013.6
20260905160546 91 160 2.6 6.1 0.00 0.00 0.00 62 1013.6
20260905160104 91 184 0.9 5.2 0.00 0.00 0.00 63 1013.7
20260905155546 91 91 0.9 5.2 0.00 0.00 0.00 63 1013.7
20260905155044 90 99 0.9 7.0 0.00 0.00 0.00 62 1013.8
20260905154606 90 0 0.9 7.8 0.00 0.00 0.00 63 1013.8
20260905154049 89 70 1.7 7.8 0.00 0.00 0.00 63 1013.9
20260905153546 89 68 1.7 7.8 0.00 0.00 0.00 63 1013.9
20260905153053 89 144 0.9 7.8 0.00 0.00 0.00 64 1013.9
20260905152545 89 101 0.9 6.1 0.00 0.00 0.00 65 1013.8
20260905152045 88 164 1.7 7.8 0.00 0.00 0.00 66 1013.8
20260905151559 88 96 1.7 7.8 0.00 0.00 0.00 67 1013.9
20260905151045 88 67 1.7 7.8 0.00 0.00 0.00 66 1014.0
20260905150548 88 55 2.6 7.8 0.00 0.00 0.00 66 1014.0
20260905150105 87 0 1.7 7.8 0.00 0.00 0.00 67 1014.1
20260905145545 87 127 1.7 7.0 0.00 0.00 0.00 68 1014.2
20260905145045 87 0 0.9 7.0 0.00 0.00 0.00 70 1014.2
20260905144552 86 144 1.7 7.0 0.00 0.00 0.00 70 1014.2
20260905144046 86 126 2.6 5.2 0.00 0.00 0.00 70 1014.3
20260905143546 86 146 0.9 4.3 0.00 0.00 0.00 71 1014.2
20260905143105 86 111 0.9 4.3 0.00 0.00 0.00 72 1014.1
20260905142545 85 84 0.0 4.3 0.00 0.00 0.00 71 1014.1
20260905142045 85 55 1.7 3.5 0.00 0.00 0.00 72 1014.1
20260905141603 85 0 0.0 5.2 0.00 0.00 0.00 74 1014.0
20260905141045 85 92 0.9 5.2 0.00 0.00 0.00 73 1014.0
20260905140546 85 109 1.7 3.5 0.00 0.00 0.00 72 1013.9
20260905140104 84 124 0.0 3.5 0.00 0.00 0.00 73 1014.0
20260905135545 84 107 0.9 3.5 0.00 0.00 0.00 73 1013.9
20260905135044 84 80 1.7 3.5 0.00 0.00 0.00 75 1013.9
20260905134601 84 82 0.0 2.6 0.00 0.00 0.00 76 1013.9
20260905134046 83 99 0.0 3.5 0.00 0.00 0.00 77 1013.8
20260905133545 82 103 0.9 3.5 0.00 0.00 0.00 77 1014.1
20260905133056 82 81 0.0 3.5 0.00 0.00 0.00 78 1014.0
20260905132547 81 0 0.9 3.5 0.00 0.00 0.00 80 1013.9
20260905132046 80 0 0.9 1.7 0.00 0.00 0.00 81 1014.0
20260905131602 80 126 0.0 1.7 0.00 0.00 0.00 81 1014.2
20260905131046 80 0 0.0 0.9 0.00 0.00 0.00 80 1014.1
20260905130546 80 0 0.0 0.0 0.00 0.00 0.00 83 1014.2
20260905125545 79 0 0.0 0.9 0.00 0.00 0.00 82 1014.3
20260905125046 79 0 0.0 0.9 0.00 0.00 0.00 82 1014.3
20260905124603 79 0 0.0 0.0 0.00 0.00 0.00 83 1014.4
20260905124046 78 0 0.0 0.0 0.00 0.00 0.00 84 1014.5
20260905123545 77 0 0.0 0.0 0.00 0.00 0.00 86 1014.5
20260905123058 76 0 0.0 0.0 0.00 0.00 0.00 87 1014.3
20260905122547 76 0 0.0 0.0 0.00 0.00 0.00 88 1014.4
20260905122047 75 0 0.0 0.9 0.00 0.00 0.00 90 1014.4
20260905121600 74 0 0.0 0.9 0.00 0.00 0.00 91 1014.5
20260905121046 73 0 0.0 0.9 0.00 0.00 0.00 92 1014.3
20260905120546 73 0 0.0 0.0 0.00 0.00 0.00 94 1014.4
20260905120105 72 0 0.0 0.0 0.00 0.00 0.00 95 1014.4
20260905115548 71 0 0.0 0.0 0.00 0.00 0.00 95 1014.3
20260905115046 71 0 0.0 0.0 0.00 0.00 0.00 96 1014.3
20260905114602 70 0 0.0 0.0 0.00 0.00 0.00 96 1014.2
20260905114045 70 0 0.0 0.0 0.00 0.00 0.00 96 1014.1
20260905113545 69 0 0.0 0.0 0.00 0.00 0.00 96 1014.0
20260905113109 69 0 0.0 0.0 0.00 0.00 0.00 95 1014.0
20260905112546 69 0 0.0 0.0 0.00 0.00 0.00 95 1013.9
20260905112046 69 0 0.0 0.0 0.00 0.00 0.00 95 1013.9
20260905111554 69 0 0.0 0.0 0.00 0.00 0.00 95 1013.7
20260905111046 69 0 0.0 0.0 0.00 0.00 0.00 95 1013.8
20260905110545 69 0 0.0 0.0 0.00 0.00 0.00 95 1013.8
20260905105545 69 0 0.0 0.0 0.00 0.00 0.00 95 1013.7
20260905105049 69 0 0.0 0.0 0.00 0.00 0.00 95 1013.6
20260905104559 69 0 0.0 0.0 0.00 0.00 0.00 95 1013.5
20260905104045 69 0 0.0 0.0 0.00 0.00 0.00 95 1013.5